Regional Weather Roundup
Issued by NWS

Home | Current Version | Previous Version | Graphics & Text | Print | Product List | Glossary Off
Versions: 1 2 3 4 5 6 7 8 9 10 11 12 13 14 15 16 17 18 19 20 21 22 23 24 25 26 27 28 29 30 31 32 33 34 35 36 37 38 39 40 41 42 43 44 45 46 47 48 49 50

000
ASUS43 KDMX 010807
RWRIA

WEATHER ROUNDUP FOR IOWA
NATIONAL WEATHER SERVICE DES MOINES IA
300 AM CDT WED JUL 01 2015

NOTE: "FAIR" INDICATES FEW OR NO CLOUDS BELOW 12,000 FEET WITH NO
SIGNIFICANT WEATHER AND/OR OBSTRUCTIONS TO VISIBILITY.

* - THESE STATIONS ARE NOT NWS STATIONS...THUS NOT UNDER NWS
QUALITY CONTROL.  THEY ALSO DO NOT REPORT WEATHER SUCH
AS PRECIPITATION OR FOG.

IAZ001>003-012>014-020>022-031>034-043>046-010900-
   NORTHWEST IOWA

CITY           SKY/WX    TMP DP  RH WIND       PRES   REMARKS
CARROLL *      MOCLDY    66  64  94 E7        29.91S
CHEROKEE *     MOCLDY    64  63  94 E5        29.91F
DENISON *      CLEAR     64  64 100 E5        29.87F FOG
LE MARS *        N/A     68  66  94 E5        29.89F
ORANGE CITY *  CLEAR     63  61  94 E6        29.90F
SHELDON *      CLOUDY    63  63 100 E6        29.91F
SIOUX CITY     MOCLDY    67  64  90 E6        29.88S FOG
SPENCER        CLOUDY    65  61  87 SE9       29.93S
STORM LAKE *   MOCLDY    63  63 100 E7        29.93F FOG
$$

IAZ055>058-069>071-079>083-090>094-010900-
   SOUTHWEST IOWA

CITY           SKY/WX    TMP DP  RH WIND       PRES   REMARKS
ATLANTIC *     PTCLDY    66  66 100 CALM      29.88F FOG
AUDUBON *      CLEAR     66  63  88 CALM      29.91F FOG
CLARINDA *     CLOUDY    68  68 100 CALM      29.88F
COUNCIL BLFS * MOCLDY    66  66 100 SE8       29.86F
CRESTON *      CLEAR     66  66 100 CALM      29.89F
HARLAN  *      PTCLDY    66  66 100 S3        29.91F
LAMONI         CLOUDY    69  67  93 S5        29.88F FOG
RED OAK *      CLOUDY    68  68 100 CALM      29.86F
SHENANDOAH *   CLOUDY    68  68 100 S10       29.87F
$$

IAZ047>049-059>061-072>074-084-010900-
   CENTRAL IOWA

CITY           SKY/WX    TMP DP  RH WIND       PRES   REMARKS
AMES           CLEAR     66  62  87 E3        29.91F
ANKENY *       MOCLDY    66  64  94 CALM      29.91S
CHARITON *     CLOUDY    70  68  94 CALM      29.90F
DES MOINES     MOCLDY    70  63  78 E6        29.90F
GRINNELL*      MOCLDY    66  63  88 E6        29.92F
KNOXVILLE *    CLOUDY    68  64  88 E5        29.89F
MARSHALLTOWN   MOCLDY    65  62  90 E6        29.92F
PELLA *        PTCLDY    68  66  94 E3        29.91F
PERRY *        MOCLDY    66  64  94 E5        29.91F
$$

IAZ004>006-015-016-023>025-035-036-010900-
   NORTH CENTRAL IOWA

CITY           SKY/WX    TMP DP  RH WIND       PRES   REMARKS
ALGONA *       CLOUDY    64  59  82 E8        29.94F
CLARION *      MOCLDY    63  61  94 E7        29.93F
ESTHERVILLE    PTCLDY    59  58  96 E5        29.94R
FORT DODGE *   PTCLDY    63  59  88 E6        29.93F
MASON CITY     CLEAR     58  55  90 E7        29.97R
FOREST CITY *  CLEAR     59  54  82 E3        29.95S
IOWA FALLS *   CLOUDY    64  59  82 E3        29.95S
$$

IAZ007>011-017>019-026>030-037>042-050>054-066-010900-
   NORTHEAST IOWA

CITY           SKY/WX    TMP DP  RH WIND       PRES   REMARKS
CEDAR RAPIDS   CLOUDY    65  60  84 NE9       29.93R
CHARLES CITY * PTCLDY    59  57  94 NE7       29.96S
CLINTON *      MOCLDY    61  57  88 N7        29.94S
DECORAH *        N/A    N/A N/A N/A MISG        N/A
DUBUQUE        CLEAR     58  54  86 NE6       29.94R
MONTICELLO *   CLEAR     59 N/A N/A CALM      29.94R
OELWEIN *        N/A    N/A N/A N/A MISG        N/A
WATERLOO       MOCLDY    60  57  89 E7        29.93F
$$

IAZ064-065-067-068-078-010900-
   EAST CENTRAL IOWA

CITY           SKY/WX    TMP DP  RH WIND       PRES   REMARKS
DAVENPORT      MOCLDY    64  60  87 NE5       29.92R
IOWA CITY      CLOUDY    66  59  78 NE5       29.93R
MT. PLEASANT * CLOUDY    68  64  88 NE3       29.90F
MUSCATINE *    CLOUDY    68  63  83 N6        29.91F
QUAD CITIES    CLOUDY    68  60  75 NE3       29.90S
$$

IAZ062-063-075>077-085>089-095>099-010900-
   SOUTHEAST IOWA

CITY           SKY/WX    TMP DP  RH WIND       PRES   REMARKS
BURLINGTON     CLOUDY    69  65  86 NE5       29.90S
FAIRFIELD *    CLOUDY    66  63  88 NE6       29.90F
FORT MADISON * CLEAR     68  68 100 CALM      29.90F FOG
KEOKUK *       PTCLDY    70  68  94 CALM      29.88F
OSKALOOSA *      N/A     66  64  94 CALM      29.91F
CENTERVILLE *  MOCLDY    68  68 100 SW5       29.92F
OTTUMWA        CLOUDY    67  64  90 NE9       29.89F
WASHINGTON *   CLEAR     64  64 100 NE5       29.93S
$$

ABBREVIATIONS USED IN REMARKS
   TC - TEMPERATURES IN CELSIUS
  WCI - WIND CHILL INDEX
   HX - HEAT INDEX
  VSB - VISIBILITY
$$




USA.gov is the U.S. government's official web portal to all federal, state and local government web resources and services.